Kelso-Longview, WA
on Friday, November 30, 2012

Friday
Previous Day Next Day
Daily Summary
 ActualAverage (KSPB)Record (KSPB)
Temperature
Mean Temperature °F °F  
Max Temperature 55°F °F 58°F (2012)
Min Temperature 44°F °F 28°F (2002)
Degree Days
Heating Degree Days 16    
Month to date heating degree days  
Since 1 July heating degree days  
Cooling Degree Days 0    
Month to date cooling degree days  
Year to date cooling degree days  
Moisture
Dew Point 45°F   
Average Humidity 83    
Maximum Humidity 93    
Minimum Humidity 72    
Precipitation
Precipitation 1.06 in in 1.17 in (2010)
Month to date precipitation  
Year to date precipitation  
Wind
Wind Speed 10 mph   
Max Wind Speed 20 mph   
Max Gust Speed 31 mph   
Visibility 10 miles   
Events     

Key: T is trace of precipitation, MM is missing value
Source: NWS Daily Summary
Time(PST)TemperatureDew PointHumidity Pressure Visibility Wind DirectionWind SpeedGust SpeedPrecipitationEvents Conditions
12:15 AM 44.6°F 42.8°F 93% 29.47 in 10.0 miles SSE 8.1 mph - N/A   Overcast
12:35 AM 44.6°F 41.0°F 87% 29.47 in 10.0 miles SE 8.1 mph - N/A   Overcast
12:55 AM 44.6°F 41.0°F 87% 29.46 in 10.0 miles SE 10.4 mph - N/A   Overcast
1:15 AM 44.6°F 41.0°F 87% 29.45 in 10.0 miles SE 8.1 mph 16.1 mph N/A   Overcast
1:35 AM 44.6°F 41.0°F 87% 29.44 in 10.0 miles SE 10.4 mph 17.3 mph 0.01 in   Mostly Cloudy
1:55 AM 44.6°F 41.0°F 87% 29.44 in 10.0 miles SE 8.1 mph - 0.01 in   Mostly Cloudy
2:15 AM 44.6°F 41.0°F 87% 29.44 in 7.0 miles SE 10.4 mph - N/A   Mostly Cloudy
2:35 AM 44.6°F 41.0°F 87% 29.44 in 10.0 miles SE 9.2 mph - 0.01 in   Overcast
2:55 AM 44.6°F 42.8°F 93% 29.44 in 8.0 miles SE 10.4 mph - 0.02 in   Mostly Cloudy
3:15 AM 44.6°F 42.8°F 93% 29.43 in 8.0 miles SE 8.1 mph - 0.01 in   Overcast
3:35 AM 46.4°F 42.8°F 87% 29.43 in 10.0 miles SE 9.2 mph 17.3 mph 0.01 in   Mostly Cloudy
3:55 AM 46.4°F 42.8°F 87% 29.42 in 10.0 miles SE 6.9 mph - 0.01 in   Overcast
4:15 AM 46.4°F 42.8°F 87% 29.40 in 10.0 miles SE 6.9 mph - N/A   Mostly Cloudy
4:35 AM 44.6°F 42.8°F 93% 29.41 in 10.0 miles SSE 9.2 mph - N/A   Mostly Cloudy
4:55 AM 46.4°F 42.8°F 87% 29.42 in 7.0 miles SE 12.7 mph - 0.07 in   Mostly Cloudy
5:15 AM 46.4°F 42.8°F 87% 29.42 in 8.0 miles SE 11.5 mph - 0.04 in   Overcast
5:35 AM 46.4°F 42.8°F 87% 29.42 in 9.0 miles SSE 10.4 mph - 0.08 in   Overcast
5:55 AM 46.4°F 42.8°F 87% 29.43 in 6.0 miles SSE 8.1 mph - 0.09 in   Overcast
6:15 AM 46.4°F 42.8°F 87% 29.43 in 10.0 miles SSE 11.5 mph - N/A   Overcast
6:35 AM 46.4°F 42.8°F 87% 29.44 in 10.0 miles SE 11.5 mph 19.6 mph N/A   Mostly Cloudy
6:55 AM 44.6°F 42.8°F 93% 29.45 in 10.0 miles SE 8.1 mph - N/A   Overcast
7:15 AM 46.4°F 42.8°F 87% 29.46 in 10.0 miles SSE 5.8 mph - N/A   Overcast
7:35 AM 46.4°F 44.6°F 93% 29.46 in 9.0 miles South 9.2 mph - N/A   Overcast
7:55 AM 48.2°F 44.6°F 87% 29.46 in 7.0 miles SSE 10.4 mph - 0.02 in   Overcast
8:15 AM 48.2°F 44.6°F 87% 29.47 in 9.0 miles South 9.2 mph 17.3 mph 0.03 in   Overcast
8:35 AM 48.2°F 44.6°F 87% 29.47 in 9.0 miles South 8.1 mph - 0.05 in   Overcast
8:55 AM 50.0°F 46.4°F 87% 29.47 in 10.0 miles South 8.1 mph 16.1 mph 0.05 in   Overcast
9:15 AM 51.8°F 46.4°F 82% 29.47 in 10.0 miles SSE 11.5 mph 19.6 mph N/A   Overcast
9:35 AM 51.8°F 46.4°F 82% 29.48 in 10.0 miles South 10.4 mph 18.4 mph 0.01 in   Overcast
9:55 AM 51.8°F 46.4°F 82% 29.48 in 10.0 miles South 8.1 mph 16.1 mph 0.02 in   Overcast
10:15 AM 53.6°F 46.4°F 77% 29.48 in 10.0 miles SSE 15.0 mph 18.4 mph N/A   Overcast
10:35 AM 53.6°F 46.4°F 77% 29.49 in 10.0 miles SSE 12.7 mph 18.4 mph 0.01 in   Mostly Cloudy
10:55 AM 53.6°F 46.4°F 77% 29.49 in 10.0 miles SSE 13.8 mph 20.7 mph 0.01 in   Mostly Cloudy
11:15 AM 53.6°F 46.4°F 77% 29.49 in 10.0 miles South 6.9 mph 23.0 mph 0.01 in   Overcast
11:35 AM 53.6°F 48.2°F 82% 29.48 in 9.0 miles SSE 5.8 mph - 0.05 in   Overcast
11:55 AM 53.6°F 48.2°F 82% 29.48 in 10.0 miles SSE 11.5 mph - 0.06 in   Overcast
12:15 PM 53.6°F 48.2°F 82% 29.48 in 10.0 miles SSE 11.5 mph 18.4 mph N/A   Overcast
12:35 PM 53.6°F 48.2°F 82% 29.48 in 10.0 miles South 6.9 mph - N/A   Overcast
12:55 PM 53.6°F 48.2°F 82% 29.47 in 10.0 miles SSE 6.9 mph - N/A   Mostly Cloudy
1:15 PM 55.4°F 46.4°F 72% 29.46 in 10.0 miles SSE 13.8 mph 19.6 mph N/A   Mostly Cloudy
1:35 PM 55.4°F 46.4°F 72% 29.46 in 10.0 miles South 9.2 mph 16.1 mph N/A   Overcast
1:55 PM 55.4°F 46.4°F 72% 29.47 in 10.0 miles South 8.1 mph - N/A   Overcast
2:15 PM 55.4°F 46.4°F 72% 29.46 in 10.0 miles South 9.2 mph 16.1 mph 0.01 in   Overcast
2:35 PM 55.4°F 46.4°F 72% 29.47 in 10.0 miles SSE 8.1 mph - 0.01 in   Overcast
2:55 PM 55.4°F 46.4°F 72% 29.46 in 10.0 miles SSE 10.4 mph 19.6 mph 0.01 in   Overcast
3:15 PM 55.4°F 46.4°F 72% 29.47 in 10.0 miles SSE 8.1 mph 20.7 mph N/A   Mostly Cloudy
3:35 PM 55.4°F 46.4°F 72% 29.47 in 10.0 miles SSE 10.4 mph 20.7 mph N/A   Overcast
3:55 PM 55.4°F 46.4°F 72% 29.47 in 10.0 miles SSE 8.1 mph - N/A   Overcast
4:15 PM 53.6°F 46.4°F 77% 29.47 in 10.0 miles South 9.2 mph - N/A   Mostly Cloudy
4:35 PM 53.6°F 46.4°F 77% 29.47 in 10.0 miles South 9.2 mph 16.1 mph 0.01 in   Mostly Cloudy
5:15 PM 53.6°F 48.2°F 82% 29.47 in 10.0 miles SSE 11.5 mph - 0.01 in   Overcast
5:35 PM 51.8°F 48.2°F 88% 29.47 in 10.0 miles SSE 10.4 mph - 0.03 in   Overcast
5:55 PM 51.8°F 48.2°F 88% 29.47 in 10.0 miles SSE 8.1 mph 16.1 mph 0.09 in   Overcast
6:15 PM 51.8°F 48.2°F 88% 29.47 in 10.0 miles SSE 12.7 mph 19.6 mph 0.04 in   Overcast
6:35 PM 51.8°F 48.2°F 88% 29.46 in 10.0 miles SSE 10.4 mph 17.3 mph 0.07 in   Overcast
6:55 PM 53.6°F 48.2°F 82% 29.45 in 10.0 miles SSE 9.2 mph - 0.08 in   Overcast
7:15 PM 51.8°F 48.2°F 88% 29.45 in 10.0 miles South 8.1 mph - 0.05 in   Overcast
7:35 PM 51.8°F 48.2°F 88% 29.45 in 10.0 miles South 11.5 mph - 0.09 in   Overcast
8:15 PM 51.8°F 48.2°F 88% 29.44 in 10.0 miles SSE 12.7 mph 23.0 mph 0.02 in   Overcast
8:35 PM 53.6°F 48.2°F 82% 29.44 in 10.0 miles South 10.4 mph 19.6 mph 0.04 in   Overcast
9:15 PM 51.8°F 46.4°F 82% 29.43 in 10.0 miles SSE 9.2 mph 19.6 mph 0.06 in   Mostly Cloudy
9:35 PM 51.8°F 46.4°F 82% 29.43 in 10.0 miles South 9.2 mph - 0.11 in   Overcast
9:55 PM 51.8°F 46.4°F 82% 29.44 in 10.0 miles SSE 17.3 mph 25.3 mph 0.20 in   Mostly Cloudy
10:15 PM 51.8°F 46.4°F 82% 29.44 in 10.0 miles SSE 13.8 mph 20.7 mph 0.04 in   Overcast
10:35 PM 51.8°F 46.4°F 82% 29.44 in 8.0 miles SE 16.1 mph 21.9 mph 0.08 in   Overcast
10:55 PM 51.8°F 46.4°F 82% 29.45 in 10.0 miles SSE 9.2 mph 17.3 mph 0.16 in   Mostly Cloudy
11:15 PM 51.8°F 44.6°F 76% 29.44 in 10.0 miles SSE 16.1 mph 24.2 mph 0.01 in   Mostly Cloudy
11:35 PM 51.8°F 44.6°F 76% 29.43 in 10.0 miles SSE 17.3 mph 28.8 mph 0.02 in   Overcast
11:55 PM 51.8°F 44.6°F 76% 29.43 in 10.0 miles SSE 19.6 mph 31.1 mph 0.02 in   Overcast
Moon Phase
Nov. 30 Dec. 06 Dec. 13 Dec. 20 Dec. 28
Sunrise:07:32 AM (PST) Moon Rise:06:28 PM (PST)
Sunset:04:27 PM (PST) Moon Set:09:08 AM (PST)

Copyright © 2014 The Weather Underground, Inc.